Oakland, CA

2:19 PM PDT on June 24, 2018 (GMT -0700)
Metro Oakland International

Weather History for KOAK - October, 2017

Change the Weather History Date:

Thursday, October 12, 2017

  Actual Average Record
Temperature  
Mean Temperature 58 °F 61 °F  
Max Temperature 70 °F 70 °F 91 °F (2010)
Min Temperature 45 °F 52 °F 45 °F (2017)
Degree Days  
Heating Degree Days 7 4  
Month to date heating degree days 34 43  
Since 1 July heating degree days 107 243  
Cooling Degree Days 0 1  
Month to date cooling degree days 1 12  
Year to date cooling degree days 291 137  
Growing Degree Days 8 (Base 50)    
Moisture  
Dew Point 41 °F    
Average Humidity 60    
Maximum Humidity 89    
Minimum Humidity 30    
Precipitation  
Precipitation 0.00 in 0.03 in 1.32 in (1962)
Month to date precipitation 0.00 0.29  
Year to date precipitation 20.12 13.79  
Sea Level Pressure  
Sea Level Pressure 30.07 in    
Wind  
Wind Speed 6 mph (NW)    
Max Wind Speed 16 mph    
Max Gust Speed 21 mph    
Visibility 7 miles    
Events      
T = Trace of Precipitation, MM = Missing Value Source: NWS Daily Summary

Daily Weather History Graph

Daily Weather History Graph

Search for Another Location

Airport or City:

Astronomy

Oct. 12, 2017 Rise Set
Actual Time 7:14 AM PDT 6:35 PM PDT
Civil Twilight 6:48 AM PDT 7:01 PM PDT
Nautical Twilight 6:17 AM PDT 7:31 PM PDT
Astronomical Twilight 5:47 AM PDT 8:02 PM PDT
Moon No Moon Rise 2:26 PM PDT (10/12)
Length of Visible Light 12h 13m
Length of Day
11h 20m
Waning Gibbous, 47% of the Moon is Illuminated
Oct 12
Waning Gibbous
Oct 19
New
Oct 27
First Quarter
Nov 3
Full
Nov 10
Last Quarter

Hourly Weather History & Observations

Time (PDT) Temp. Dew Point Humidity Pressure Visibility Wind Dir Wind Speed Gust Speed Precip Events Conditions
12:53 AM 52.0 °F 44.1 °F 74% 30.04 in 9.0 mi Calm Calm - N/A   Scattered Clouds
1:53 AM 51.1 °F 41.0 °F 68% 30.04 in 7.0 mi Calm Calm - N/A   Scattered Clouds
2:38 AM 54.0 °F 37.9 °F 55% 30.05 in 5.0 mi NW 8.1 mph - N/A   Haze
2:53 AM 54.0 °F 37.9 °F 55% 30.05 in 6.0 mi NNW 5.8 mph - N/A   Haze
3:21 AM 50.0 °F 37.9 °F 63% 30.05 in 6.0 mi Calm Calm - N/A   Haze
3:53 AM 51.1 °F 41.0 °F 68% 30.04 in 6.0 mi NW 6.9 mph - N/A   Haze
4:53 AM 54.0 °F 37.0 °F 53% 30.05 in 6.0 mi NW 9.2 mph - N/A   Haze
5:53 AM 50.0 °F 37.9 °F 63% 30.06 in 5.0 mi NNW 3.5 mph - N/A   Haze
6:53 AM 51.1 °F 39.0 °F 63% 30.07 in 7.0 mi NNW 6.9 mph - N/A   Partly Cloudy
7:53 AM 48.9 °F 37.9 °F 66% 30.09 in 5.0 mi NNE 4.6 mph - N/A   Haze
8:53 AM 57.0 °F 41.0 °F 55% 30.12 in 5.0 mi Calm Calm - N/A   Haze
9:53 AM 59.0 °F 39.0 °F 48% 30.12 in 5.0 mi Variable 3.5 mph - N/A   Haze
10:53 AM 63.0 °F 37.9 °F 40% 30.12 in 5.0 mi WNW 6.9 mph - N/A   Haze
11:53 AM 64.0 °F 39.0 °F 40% 30.11 in 5.0 mi NW 11.5 mph - N/A   Haze
12:53 PM 66.0 °F 39.9 °F 38% 30.09 in 4.0 mi West 12.7 mph - N/A   Haze
1:53 PM 68.0 °F 35.1 °F 30% 30.08 in 4.0 mi WNW 13.8 mph - N/A   Haze
2:53 PM 68.0 °F 43.0 °F 40% 30.06 in 5.0 mi West 13.8 mph - N/A   Haze
3:53 PM 66.9 °F 39.9 °F 37% 30.06 in 5.0 mi West 13.8 mph - N/A   Haze
4:53 PM 64.0 °F 42.1 °F 45% 30.06 in 6.0 mi WNW 10.4 mph - N/A   Haze
5:53 PM 62.1 °F 45.0 °F 53% 30.05 in 10.0 mi WNW 8.1 mph - N/A   Mostly Cloudy
6:53 PM 59.0 °F 48.9 °F 69% 30.05 in 10.0 mi West 5.8 mph - N/A   Scattered Clouds
7:53 PM 55.9 °F 48.9 °F 77% 30.06 in 10.0 mi West 5.8 mph - N/A   Scattered Clouds
8:53 PM 51.1 °F 46.0 °F 83% 30.06 in 10.0 mi Calm Calm - N/A   Scattered Clouds
9:53 PM 51.1 °F 48.9 °F 92% 30.08 in 10.0 mi ENE 3.5 mph - N/A   Scattered Clouds
10:53 PM 51.1 °F 43.0 °F 74% 30.08 in 8.0 mi NNE 4.6 mph - N/A   Mostly Cloudy
11:53 PM 50.0 °F 39.0 °F 66% 30.08 in 7.0 mi Calm Calm - N/A   Mostly Cloudy